Newport News, VA

3:22 PM EST on December 06, 2016 (GMT -0500)
Newport News-Williamsburg International

Weather History for KPHF - March, 2013

Change the Weather History Date:

Saturday, March 9, 2013

  Actual Average Record
Temperature  
Mean Temperature 50 °F -  
Max Temperature 62 °F 53 °F 82 °F (2009)
Min Temperature 36 °F 36 °F 20 °F (1975)
Degree Days  
Heating Degree Days 16    
Moisture  
Dew Point 26 °F    
Average Humidity 48    
Maximum Humidity 76    
Minimum Humidity 19    
Precipitation  
Precipitation 0.00 in - - ()
Sea Level Pressure  
Sea Level Pressure 30.27 in    
Wind  
Wind Speed 8 mph (North)    
Max Wind Speed 12 mph    
Max Gust Speed 18 mph    
Visibility 10 miles    
Events      
Averages and records for this station are not official NWS values.
T = Trace of Precipitation, MM = Missing Value Source: NWS Daily Summary

Daily Weather History Graph

Daily Weather History Graph

Search for Another Location

Airport or City:

Trip Planner

Search our weather history database for the weather conditions in past years. The results will help you decide how hot, cold, wet, or windy it might be!

Date:

Astronomy

Mar. 09, 2013 Rise Set
Actual Time 6:25 AM EST 6:07 PM EST
Civil Twilight 5:59 AM EST 6:33 PM EST
Nautical Twilight 5:29 AM EST 7:04 PM EST
Astronomical Twilight 4:59 AM EST 7:34 PM EST
Moon 4:45 AM EST (3/9) 4:09 PM EST (3/9)
Length of Visible Light 12h 34m
Length of Day
11h 42m
Waning Crescent, 5% of the Moon is Illuminated
Mar 9
Waning Crescent
Mar 11
New
Mar 19
First Quarter
Mar 27
Full
Apr 3
Last Quarter

Hourly Weather History & Observations

Time (EST) Temp. Windchill Dew Point Humidity Pressure Visibility Wind Dir Wind Speed Gust Speed Precip Events Conditions
12:54 AM 41.0 °F 35.8 °F 27.0 °F 57% 30.22 in 10.0 mi WNW 8.1 mph - N/A   Clear
1:54 AM 39.9 °F 35.1 °F 27.0 °F 60% 30.22 in 10.0 mi North 6.9 mph - N/A   Clear
2:54 AM 41.0 °F 35.2 °F 28.0 °F 60% 30.22 in 10.0 mi NNW 9.2 mph 17.3 mph N/A   Clear
3:54 AM 41.0 °F 34.3 °F 27.0 °F 57% 30.22 in 10.0 mi NNW 11.5 mph - N/A   Clear
4:54 AM 41.0 °F 34.7 °F 26.1 °F 55% 30.24 in 10.0 mi NNW 10.4 mph - N/A   Clear
5:54 AM 41.0 °F 34.3 °F 26.1 °F 55% 30.25 in 10.0 mi North 11.5 mph - N/A   Clear
6:54 AM 39.9 °F 33.4 °F 25.0 °F 55% 30.27 in 10.0 mi North 10.4 mph - N/A   Clear
7:54 AM 43.0 °F 36.8 °F 25.0 °F 49% 30.29 in 10.0 mi North 11.5 mph 18.4 mph N/A   Clear
8:54 AM 46.9 °F - 25.0 °F 42% 30.30 in 10.0 mi North 9.2 mph - N/A   Clear
9:54 AM 51.1 °F - 25.0 °F 36% 30.31 in 10.0 mi North 10.4 mph - N/A   Clear
10:54 AM 53.1 °F - 23.0 °F 31% 30.31 in 10.0 mi North 8.1 mph - N/A   Clear
11:54 AM 55.9 °F - 21.9 °F 27% 30.30 in 10.0 mi North 10.4 mph - N/A   Clear
12:54 PM 59.0 °F - 21.0 °F 23% 30.27 in 10.0 mi NNE 11.5 mph - N/A   Clear
1:54 PM 61.0 °F - 21.0 °F 21% 30.25 in 10.0 mi North 10.4 mph - N/A   Clear
2:54 PM 62.1 °F - 19.9 °F 20% 30.25 in 10.0 mi NNE 9.2 mph - N/A   Clear
3:54 PM 60.1 °F - 28.9 °F 31% 30.24 in 10.0 mi East 6.9 mph - N/A   Clear
4:54 PM 61.0 °F - 18.0 °F 19% 30.25 in 10.0 mi NNW 6.9 mph - N/A   Clear
5:54 PM 48.9 °F - 30.0 °F 48% 30.26 in 10.0 mi ENE 10.4 mph - N/A   Clear
6:54 PM 45.0 °F 43.5 °F 30.0 °F 56% 30.27 in 10.0 mi ENE 3.5 mph - N/A   Clear
7:54 PM 42.1 °F - 30.9 °F 65% 30.29 in 10.0 mi Calm Calm - N/A   Clear
8:54 PM 39.9 °F - 30.9 °F 70% 30.30 in 10.0 mi Calm Calm - N/A   Clear
9:54 PM 37.0 °F - 28.9 °F 73% 30.31 in 10.0 mi Calm Calm - N/A   Clear
10:54 PM 37.0 °F - 30.0 °F 76% 30.31 in 10.0 mi Calm Calm - N/A   Clear
11:54 PM 36.0 °F - 28.9 °F 76% 30.30 in 10.0 mi Calm Calm - N/A   Clear